When you browse on this site, cookies collect data to enhance your experience and personalize the content and advertising you see.
Visit our Privacy Policy to learn more. By continuing to use the site, you agree to this use of cookies and data.
  • In Hungary
  • List of Countries
  • For 7 days
  • Water Temperature
  • Weather Map
  • News
  • Weather Widgets
  • user-avatar
    Login

    Hourly Weather Podvine

    Today, 10 December, Tuesday

    Time Temperature Precipitation Wind Pressure Humidity
    00:00 +3°C° 0 mm 4 mps 743 mmHg 93%
    01:00 +2°C° 0 mm 3 mps 743 mmHg 94%
    02:00 +2°C° 0 mm 3 mps 744 mmHg 95%
    03:00 +1°C° 0 mm 3 mps 744 mmHg 95%
    04:00 +1°C° 0 mm 3 mps 745 mmHg 95%
    05:00 +1°C° 0 mm 3 mps 745 mmHg 94%
    06:00 +1°C° 0 mm 3 mps 745 mmHg 94%
    07:00 +1°C° 0 mm 3 mps 745 mmHg 93%
    08:00 +1°C° 0 mm 3 mps 745 mmHg 92%
    09:00 +1°C° 0 mm 4 mps 745 mmHg 90%
    10:00 +1°C° 0 mm 4 mps 746 mmHg 88%
    11:00 +3°C° 0 mm 4 mps 746 mmHg 87%
    12:00 +3°C° 0 mm 3 mps 746 mmHg 87%
    13:00 +3°C° 0 mm 3 mps 746 mmHg 87%
    14:00 +3°C° 0 mm 3 mps 746 mmHg 88%
    15:00 +3°C° 0 mm 3 mps 747 mmHg 89%
    16:00 +2°C° 0 mm 3 mps 747 mmHg 91%
    17:00 +2°C° 0 mm 3 mps 747 mmHg 93%
    18:00 +2°C° 0 mm 3 mps 748 mmHg 92%
    19:00 +3°C° 0 mm 2 mps 748 mmHg 92%
    20:00 +3°C° 0 mm 2 mps 749 mmHg 91%
    21:00 +3°C° 0.1 mm 2 mps 749 mmHg 92%
    22:00 +2°C° 0.1 mm 2 mps 750 mmHg 94%
    23:00 +2°C° 0.1 mm 2 mps 750 mmHg 95%

    Tomorrow, 11 December, Wednesday

    Time Temperature Precipitation Wind Pressure Humidity
    00:00 +2°C° 0.2 mm 2 mps 751 mmHg 95%
    01:00 +1°C° 0.2 mm 2 mps 752 mmHg 94%
    02:00 0°C° 0.2 mm 3 mps 752 mmHg 93%
    03:00 -1°C° 0 mm 2 mps 752 mmHg 92%
    04:00 -1°C° 0 mm 2 mps 753 mmHg 90%
    05:00 -1°C° 0 mm 2 mps 753 mmHg 89%
    06:00 -2°C° 0 mm 2 mps 753 mmHg 89%
    07:00 -2°C° 0 mm 2 mps 754 mmHg 88%
    08:00 0°C° 0 mm 1 mps 754 mmHg 88%
    09:00 0°C° 0 mm 1 mps 754 mmHg 86%
    10:00 +1°C° 0 mm 1 mps 754 mmHg 84%
    11:00 +1°C° 0 mm 1 mps 754 mmHg 82%
    12:00 +1°C° 0 mm 1 mps 754 mmHg 82%
    13:00 +2°C° 0 mm 1 mps 754 mmHg 82%
    14:00 +2°C° 0 mm 1 mps 754 mmHg 81%
    15:00 +2°C° 0 mm 1 mps 754 mmHg 84%
    16:00 -1°C° 0 mm 2 mps 754 mmHg 87%
    17:00 -1°C° 0 mm 2 mps 753 mmHg 90%
    18:00 -1°C° 0 mm 2 mps 753 mmHg 91%
    19:00 -1°C° 0 mm 2 mps 754 mmHg 91%
    20:00 -1°C° 0 mm 2 mps 754 mmHg 91%
    21:00 -1°C° 0 mm 2 mps 753 mmHg 89%
    22:00 -1°C° 0 mm 3 mps 753 mmHg 87%
    23:00 0°C° 0 mm 3 mps 753 mmHg 85%

    Day after tomorrow, 12 December, Thursday

    Time Temperature Precipitation Wind Pressure Humidity
    00:00 -1°C° 0 mm 3 mps 753 mmHg 85%
    01:00 -1°C° 0 mm 3 mps 753 mmHg 84%
    02:00 -1°C° 0 mm 3 mps 753 mmHg 84%
    03:00 -1°C° 0 mm 3 mps 752 mmHg 86%
    04:00 -2°C° 0 mm 3 mps 752 mmHg 89%
    05:00 -2°C° 0 mm 3 mps 751 mmHg 91%
    06:00 -2°C° 0 mm 3 mps 751 mmHg 90%
    07:00 -3°C° 0 mm 4 mps 751 mmHg 88%
    08:00 -3°C° 0 mm 4 mps 751 mmHg 87%
    09:00 -2°C° 0.1 mm 4 mps 751 mmHg 89%
    10:00 -1°C° 0.1 mm 5 mps 750 mmHg 92%
    11:00 0°C° 0.1 mm 5 mps 749 mmHg 95%
    12:00 0°C° 0.3 mm 5 mps 749 mmHg 95%
    13:00 +1°C° 0.3 mm 5 mps 748 mmHg 94%
    14:00 +1°C° 0.3 mm 5 mps 748 mmHg 94%
    15:00 +1°C° 0.1 mm 5 mps 748 mmHg 93%
    16:00 +1°C° 0.1 mm 5 mps 747 mmHg 91%
    17:00 +2°C° 0.1 mm 6 mps 747 mmHg 90%
    18:00 +2°C° 0 mm 6 mps 747 mmHg 89%
    19:00 +1°C° 0 mm 6 mps 747 mmHg 88%
    20:00 +1°C° 0 mm 6 mps 748 mmHg 86%
    21:00 +1°C° 0 mm 5 mps 747 mmHg 87%
    22:00 +1°C° 0 mm 5 mps 747 mmHg 88%
    23:00 0°C° 0 mm 5 mps 747 mmHg 88%

    13 December, Friday

    Time Temperature Precipitation Wind Pressure Humidity
    00:00 0°C° 0 mm 5 mps 747 mmHg 88%
    01:00 0°C° 0 mm 5 mps 747 mmHg 87%
    02:00 0°C° 0 mm 5 mps 746 mmHg 87%
    03:00 0°C° 0 mm 5 mps 746 mmHg 88%
    04:00 0°C° 0 mm 5 mps 746 mmHg 89%
    05:00 -1°C° 0 mm 6 mps 745 mmHg 89%
    06:00 -1°C° 0 mm 6 mps 745 mmHg 89%
    07:00 -1°C° 0 mm 6 mps 745 mmHg 88%
    08:00 -1°C° 0 mm 6 mps 744 mmHg 87%
    09:00 0°C° 0 mm 7 mps 744 mmHg 85%
    10:00 0°C° 0 mm 7 mps 744 mmHg 84%
    11:00 0°C° 0 mm 7 mps 744 mmHg 82%
    12:00 0°C° 0 mm 7 mps 744 mmHg 83%
    13:00 -1°C° 0 mm 7 mps 744 mmHg 84%
    14:00 -1°C° 0 mm 7 mps 744 mmHg 85%
    15:00 -1°C° 0 mm 7 mps 743 mmHg 85%
    16:00 -1°C° 0 mm 7 mps 743 mmHg 85%
    17:00 -1°C° 0 mm 7 mps 743 mmHg 84%
    18:00 -1°C° 0 mm 6 mps 743 mmHg 84%
    19:00 -1°C° 0 mm 6 mps 743 mmHg 84%
    20:00 -1°C° 0 mm 6 mps 743 mmHg 84%
    21:00 -1°C° 0 mm 6 mps 743 mmHg 87%
    22:00 -2°C° 0 mm 6 mps 743 mmHg 90%
    23:00 -2°C° 0 mm 6 mps 743 mmHg 93%

    14 December, Saturday

    Time Temperature Precipitation Wind Pressure Humidity
    00:00 -2°C° 0.1 mm 6 mps 744 mmHg 92%
    01:00 -2°C° 0.1 mm 6 mps 744 mmHg 91%
    02:00 -2°C° 0.1 mm 6 mps 744 mmHg 91%
    03:00 -2°C° 0 mm 6 mps 744 mmHg 89%
    04:00 -1°C° 0 mm 6 mps 743 mmHg 87%
    05:00 -1°C° 0 mm 6 mps 743 mmHg 85%
    06:00 -1°C° 0 mm 6 mps 743 mmHg 85%
    07:00 -1°C° 0 mm 6 mps 743 mmHg 85%
    08:00 -1°C° 0 mm 6 mps 743 mmHg 85%
    09:00 -1°C° 0 mm 6 mps 743 mmHg 87%
    10:00 -1°C° 0 mm 7 mps 744 mmHg 89%
    11:00 -1°C° 0 mm 7 mps 744 mmHg 91%
    12:00 -1°C° 0 mm 6 mps 743 mmHg 89%
    13:00 +1°C° 0 mm 6 mps 743 mmHg 88%
    14:00 +1°C° 0 mm 5 mps 743 mmHg 86%
    15:00 +1°C° 0 mm 6 mps 742 mmHg 87%
    16:00 +1°C° 0 mm 6 mps 742 mmHg 88%
    17:00 -1°C° 0 mm 7 mps 742 mmHg 88%
    18:00 0°C° 0 mm 7 mps 742 mmHg 89%
    19:00 0°C° 0 mm 7 mps 741 mmHg 91%
    20:00 +2°C° 0 mm 7 mps 741 mmHg 92%
    21:00 +2°C° 0.1 mm 7 mps 740 mmHg 90%
    22:00 +2°C° 0.1 mm 7 mps 740 mmHg 89%
    23:00 +2°C° 0.1 mm 7 mps 739 mmHg 88%

    15 December, Sunday

    Time Temperature Precipitation Wind Pressure Humidity
    00:00 +2°C° 0.5 mm 7 mps 738 mmHg 88%
    01:00 +3°C° 0.5 mm 7 mps 738 mmHg 89%
    02:00 +3°C° 0.5 mm 7 mps 737 mmHg 89%
    03:00 +3°C° 0.4 mm 7 mps 737 mmHg 85%
    04:00 +3°C° 0.4 mm 7 mps 737 mmHg 81%
    05:00 +3°C° 0.4 mm 7 mps 737 mmHg 77%
    06:00 +2°C° 0 mm 6 mps 737 mmHg 79%
    07:00 +2°C° 0 mm 6 mps 737 mmHg 80%
    08:00 +2°C° 0 mm 5 mps 737 mmHg 82%
    09:00 +1°C° 0.4 mm 6 mps 738 mmHg 85%
    10:00 +1°C° 0.4 mm 6 mps 738 mmHg 88%
    11:00 +1°C° 0.4 mm 6 mps 738 mmHg 90%
    12:00 0°C° 0.1 mm 7 mps 738 mmHg 83%
    13:00 0°C° 0.1 mm 7 mps 738 mmHg 76%
    14:00 +2°C° 0.1 mm 7 mps 738 mmHg 69%
    15:00 +2°C° 0 mm 7 mps 739 mmHg 70%
    16:00 0°C° 0 mm 8 mps 740 mmHg 71%
    17:00 0°C° 0 mm 8 mps 740 mmHg 72%
    18:00 0°C° 0 mm 7 mps 741 mmHg 73%
    19:00 0°C° 0 mm 7 mps 741 mmHg 73%
    20:00 -1°C° 0 mm 6 mps 742 mmHg 74%
    21:00 -1°C° 0 mm 6 mps 742 mmHg 76%
    22:00 -1°C° 0 mm 5 mps 742 mmHg 78%
    23:00 -1°C° 0 mm 4 mps 742 mmHg 80%
    Show more